Theta_e
322 322 322 322 322 322 321 321 321 321 320 319 319 319 320 320 320 320 320 321 321 321 322 323 325 328 321 314 317 330 357 351 335 328 321 321 319 316 313 316 321 318 322 324 327 327 326
321 321 321 321 322 321 320 320 320 320 319 318 318 318 318 318 319 320 320 321 320 320 321 324 327 328 319 309 327 330 339 333 328 323 321 323 321 320 316 316 314 322 322 320 322 322 325
321 321 321 321 321 321 320 320 320 318 318 318 318 318 318 318 319 319 319 319 319 320 321 325 328 325 316 315 328 325 325 324 323 321 320 325 323 318 317 313 321 319 315 317 318 319 320
322 322 321 321 321 321 320 320 319 318 318 317 317 318 317 318 318 319 319 318 318 320 323 328 329 320 311 326 326 325 323 323 324 325 323 324 324 319 315 318 317 314 315 312 317 318 321
322 322 321 321 321 320 320 320 319 318 317 317 317 317 317 317 318 318 317 317 319 323 327 330 320 315 308 327 318 321 321 321 322 322 323 329 319 314 316 309 306 311 307 311 315 319 317
322 322 321 321 321 320 320 319 319 317 317 317 317 317 317 316 317 317 316 316 321 320 325 326 323 310 316 314 318 320 321 323 318 319 318 316 312 307 308 305 299 305 306 311 308 313 314
322 322 321 321 321 320 319 319 319 317 318 317 316 317 316 316 316 316 314 317 312 311 315 308 309 315 315 319 320 318 322 319 317 312 306 311 303 301 307 308 308 307 305 305 309 315 313
322 321 321 321 320 320 319 319 318 317 316 316 316 316 315 316 316 315 311 314 321 317 309 316 314 314 316 315 312 315 317 313 311 306 310 306 302 310 314 311 308 306 304 304 310 315 310
320 321 320 320 320 319 319 318 318 317 316 315 315 315 315 316 315 310 312 312 320 319 309 316 315 312 311 312 310 311 314 313 310 307 308 303 308 314 311 307 306 303 301 304 305 311 311
319 319 319 320 319 319 318 318 318 317 315 315 315 315 315 315 307 315 311 315 316 317 304 311 309 311 312 312 307 317 317 313 310 307 308 306 312 311 306 305 304 300 308 309 309 303 298
319 318 318 319 319 319 318 318 317 317 316 315 314 314 315 313 310 318 322 321 321 317 297 312 312 319 315 309 310 311 319 312 306 309 305 304 307 306 305 306 308 303 310 309 309 303 299
318 318 318 318 319 318 318 317 317 316 315 315 313 313 314 312 312 317 325 325 320 304 298 310 314 310 308 309 311 314 312 312 313 309 309 308 313 309 308 311 310 311 307 306 304 300 294
318 318 318 317 317 317 317 317 316 316 315 313 312 312 312 318 319 327 328 320 303 298 314 309 308 311 308 305 308 311 309 304 301 297 299 306 308 311 311 304 308 306 299 292 293 293 292
317 317 317 317 316 317 317 317 316 315 314 312 311 310 312 315 320 318 323 311 300 310 308 314 312 310 306 308 306 308 308 303 306 304 301 298 300 309 311 307 304 304 300 294 289 291 297
317 316 317 316 316 317 317 317 315 315 313 311 309 314 317 323 320 320 316 303 305 311 315 313 310 306 304 308 308 308 307 306 308 307 298 300 304 314 313 312 308 303 298 303 296 296 294
316 316 316 316 316 317 317 316 315 314 313 311 319 325 326 330 326 322 313 305 311 317 317 314 307 309 304 306 306 306 306 310 310 314 311 304 299 308 312 312 310 305 308 298 297 291 290
316 316 316 316 316 317 317 316 315 314 312 310 320 320 330 332 327 317 307 309 314 318 317 313 310 310 311 309 309 306 306 313 316 314 313 306 304 304 310 304 303 306 303 303 301 300 293
317 317 316 316 316 317 317 316 315 312 310 312 322 318 326 327 313 313 309 313 311 316 316 313 314 313 311 312 311 310 309 312 317 315 308 308 302 298 303 310 312 307 301 301 301 297 301
317 317 316 316 316 317 317 316 314 312 310 309 317 323 326 323 306 308 313 313 316 313 312 313 312 314 313 310 307 310 312 315 317 314 307 307 302 295 298 302 304 303 305 303 302 302 298
317 317 317 316 316 317 317 316 314 312 311 309 318 317 321 318 315 311 312 313 311 314 312 313 312 313 310 308 309 307 309 315 316 313 324 313 300 298 293 297 302 300 304 304 298 294 295
317 317 317 317 316 316 317 316 315 313 311 312 321 317 319 313 313 313 315 315 313 310 313 314 311 311 309 304 308 308 310 312 314 320 311 305 297 299 301 304 305 304 304 304 300 299 294
317 317 317 317 317 316 317 316 315 313 311 320 314 313 316 312 315 318 311 313 312 314 315 312 311 313 313 307 307 306 308 307 307 310 307 307 300 302 300 305 305 303 305 305 304 304 302
317 316 317 317 318 317 317 317 316 314 312 318 317 319 316 311 311 311 311 315 314 316 315 315 313 311 310 311 312 311 310 309 307 303 302 302 299 298 294 302 302 297 302 304 305 305 302
316 316 316 317 318 318 317 317 316 315 313 313 318 316 315 309 311 311 313 313 312 312 311 314 314 312 313 314 311 309 307 306 306 305 304 299 300 299 295 297 290 301 308 309 307 309 310
316 316 316 316 317 317 317 317 317 316 314 313 321 316 315 310 312 311 310 310 311 312 313 312 313 313 313 309 302 301 300 302 306 308 305 304 301 296 293 292 298 303 307 307 303 306 312
316 315 315 316 317 317 317 318 317 316 315 315 322 322 318 313 308 313 310 312 307 307 309 311 316 315 312 305 302 296 295 301 301 305 306 306 305 299 295 292 290 301 309 312 309 300 311
316 315 315 315 316 317 318 318 318 318 315 313 319 323 318 313 314 313 309 309 312 309 307 312 312 311 310 304 301 299 299 306 299 299 300 302 303 299 298 298 301 309 310 312 297 298 309
316 315 315 315 316 317 318 318 318 317 317 314 319 326 317 312 315 315 315 312 313 312 306 309 309 311 310 304 303 302 301 303 300 303 301 298 296 296 296 294 293 310 309 302 306 312 310
315 315 315 315 316 316 317 318 317 317 317 316 318 323 323 316 316 320 317 317 317 316 308 309 308 310 311 306 306 305 301 301 300 295 305 296 302 299 300 299 308 310 308 310 310 308 310
Wind_Speed
15 15 15 14 13 13 14 14 13 12 13 14 13 13 13 13 13 13 14 14 14 15 16 15 15 13 6 3 9 7 8 6 4 4 9 14 17 7 9 6 6 8 2 7 8 6 6
16 15 15 15 14 14 14 14 14 13 14 14 13 13 13 13 13 13 14 13 14 15 16 15 13 13 3 6 4 12 10 8 8 9 11 13 8 11 8 12 4 2 7 4 7 5 3
16 16 16 16 15 15 15 14 14 15 14 14 14 14 14 14 14 14 14 14 16 16 15 13 10 5 5 14 9 3 6 7 8 9 11 11 6 9 10 9 5 4 8 8 5 5 4
16 16 16 16 16 15 15 15 16 15 14 14 14 14 14 14 14 14 14 15 17 16 14 11 6 4 8 10 10 17 7 8 8 10 7 6 10 8 6 10 11 7 7 3 7 8 8
17 16 16 17 16 16 16 16 16 16 15 14 14 13 14 14 13 13 14 16 18 15 11 10 3 4 9 4 6 7 7 9 8 6 8 8 2 7 11 7 7 8 3 5 8 8 4
18 17 17 18 18 17 17 16 16 17 15 15 14 13 13 13 12 12 16 13 10 14 5 7 8 4 8 12 9 8 11 10 6 8 7 6 4 6 7 3 5 6 1 4 6 3 5
18 18 19 18 18 18 18 18 17 18 15 15 14 13 13 12 10 10 11 1 2 2 6 11 10 6 2 9 8 8 10 7 7 3 7 9 3 8 14 9 6 5 6 6 8 9 3
18 19 19 19 19 19 19 19 18 19 17 16 14 12 11 9 7 6 4 5 9 8 7 20 20 13 18 6 4 5 4 6 7 8 9 6 9 16 14 8 9 7 2 8 8 9 4
20 18 19 19 20 20 20 19 19 20 18 17 14 11 9 6 5 3 6 11 10 16 3 7 15 9 10 4 9 10 10 9 8 8 11 8 13 12 4 3 7 8 6 8 8 5 7
20 21 20 20 20 20 20 20 20 19 20 17 13 9 6 1 1 4 6 10 16 11 4 2 7 8 7 6 7 13 13 9 7 10 10 7 10 9 5 6 5 5 11 11 8 7 5
21 21 22 21 22 22 22 21 21 20 18 17 13 8 5 8 7 5 6 12 12 4 4 14 9 6 9 10 4 4 13 7 9 11 3 11 10 6 5 9 7 7 8 7 7 5 5
21 22 22 23 22 23 23 22 22 21 19 17 15 7 5 5 4 12 13 5 1 1 7 9 7 7 6 8 10 6 4 4 6 10 10 10 10 5 4 6 6 7 5 9 7 1 3
21 22 23 23 24 24 24 24 24 22 20 17 15 6 7 7 5 10 11 2 1 4 8 11 8 11 9 9 11 9 9 6 5 4 7 13 18 12 6 4 7 7 3 5 6 2 6
21 22 23 24 24 24 24 25 25 25 23 17 13 3 11 8 10 11 6 1 5 10 10 8 11 11 9 10 11 9 7 6 10 9 8 7 13 19 8 7 7 4 6 6 6 4 5
21 22 23 24 24 24 25 25 26 26 25 20 9 4 5 7 13 5 2 3 5 7 10 5 10 10 9 12 9 9 11 11 11 12 5 4 7 6 9 6 4 5 5 7 4 6 3
21 22 23 24 24 24 25 25 26 28 27 23 3 3 7 9 11 5 1 6 8 11 9 12 6 7 8 10 8 8 6 9 8 9 8 5 5 8 11 1 6 7 7 7 5 3 6
21 21 23 24 25 24 25 25 26 28 32 9 3 3 6 13 10 2 4 7 13 7 8 6 11 10 14 4 7 7 6 4 11 7 8 5 3 10 9 6 3 7 5 4 3 5 3
17 18 22 23 24 24 25 25 25 25 32 3 5 3 7 8 3 4 7 8 3 9 3 5 6 6 7 10 9 5 9 7 8 8 5 5 0 3 9 12 9 7 4 5 5 7 5
16 18 20 23 24 25 25 25 24 20 15 6 4 5 6 7 4 7 9 16 5 7 4 4 3 9 8 7 6 8 7 5 7 6 3 4 5 5 11 12 5 8 13 10 10 4 1
16 17 19 22 24 24 25 26 26 23 12 3 4 4 2 3 5 10 13 14 4 5 3 7 8 8 8 7 8 5 5 6 7 6 7 6 2 4 6 7 9 9 13 13 5 3 5
15 16 18 19 23 25 25 27 28 31 27 5 4 4 3 2 5 10 10 6 9 4 5 6 5 7 5 5 7 9 12 10 7 8 4 5 2 5 8 9 11 14 14 14 11 8 4
14 15 17 18 20 24 25 26 29 33 33 2 4 5 7 8 11 5 4 5 8 7 6 7 8 12 12 9 7 7 9 8 4 5 6 4 3 3 5 8 10 12 12 12 10 9 8
13 14 16 18 19 20 23 25 26 28 25 5 5 5 3 6 8 6 7 7 12 8 7 10 11 7 11 10 8 8 8 8 7 6 5 4 3 4 5 7 11 8 9 12 13 10 3
11 13 15 17 18 19 22 23 24 23 19 3 4 4 3 5 6 3 7 8 11 9 6 8 5 3 5 7 7 7 8 9 10 12 8 6 3 2 4 4 7 9 9 8 8 19 14
10 12 14 16 18 19 21 21 23 23 22 4 4 4 4 4 9 13 13 11 10 4 1 4 6 4 6 6 4 5 6 6 11 18 9 9 4 1 2 4 7 8 7 8 5 9 14
10 11 13 14 16 17 19 20 21 22 23 5 3 3 3 4 7 10 6 6 4 5 5 5 6 6 1 1 2 3 3 7 4 7 5 4 6 5 3 5 6 3 14 15 4 3 12
9 10 11 13 15 16 17 19 20 21 21 7 4 4 3 4 5 6 5 4 5 6 3 5 6 2 3 2 3 3 5 7 3 2 4 3 3 2 4 5 2 5 9 11 2 4 11
8 9 11 12 13 14 16 17 19 21 21 11 6 3 3 4 4 8 8 6 6 6 4 7 4 6 4 3 2 3 3 3 5 6 6 3 2 4 3 3 3 4 6 5 5 5 5
8 8 9 11 12 14 15 15 16 18 20 18 4 8 6 3 4 7 3 3 3 4 2 5 3 3 2 4 5 4 4 4 6 4 8 4 2 2 1 1 6 8 6 5 7 4 6
Wind_Direction
5 3 1 359 355 353 351 347 343 340 340 338 334 332 329 325 323 321 319 318 317 316 316 318 322 329 337 249 249 166 183 214 236 267 261 277 287 330 351 353 74 57 321 141 166 174 140
5 2 0 358 355 352 350 346 342 340 340 332 329 326 322 321 319 317 316 315 314 313 312 314 319 316 243 266 198 167 181 176 227 223 264 271 295 329 321 339 51 335 271 254 147 126 168
3 1 0 357 354 350 347 345 343 340 334 328 324 320 318 317 315 314 314 313 311 308 305 307 314 303 268 239 308 315 189 227 204 235 249 276 358 4 325 313 19 275 279 254 150 161 139
3 358 358 354 352 347 344 343 342 337 331 326 320 317 315 313 312 313 311 308 305 302 299 297 295 279 254 274 239 267 271 269 218 244 253 332 10 334 290 294 301 241 289 42 213 181 190
1 358 355 353 351 347 343 340 339 337 331 324 318 315 311 310 310 309 308 303 295 291 285 275 254 226 262 268 215 220 258 249 206 268 291 282 21 263 293 279 300 258 105 357 296 180 142
360 357 354 352 349 345 341 338 340 340 333 326 319 313 309 307 309 314 309 281 289 313 224 229 256 287 264 230 196 209 238 257 240 205 245 230 222 248 278 262 256 30 84 203 254 203 117
358 356 352 351 347 344 341 340 338 342 334 327 318 311 305 304 308 323 330 250 276 265 251 201 199 236 312 220 219 195 205 220 286 268 232 239 193 247 258 256 285 52 2 312 306 300 155
358 355 351 350 347 345 342 339 337 343 338 329 317 308 301 297 300 325 289 248 257 340 255 222 253 252 263 324 169 191 204 181 222 244 249 272 237 239 257 290 325 330 273 289 289 285 53
357 354 351 349 346 344 342 339 337 342 339 332 321 307 295 289 333 279 232 239 293 323 287 243 207 236 228 178 265 207 176 204 244 230 248 225 254 275 228 327 310 318 289 260 242 307 349
356 353 350 349 346 344 342 341 340 339 344 338 326 306 275 344 297 223 230 241 243 257 301 183 172 239 210 201 256 240 186 175 226 247 261 250 263 275 332 332 303 260 282 314 328 27 297
355 353 351 348 346 344 343 341 341 341 339 338 331 305 253 217 317 254 274 214 221 206 308 148 180 191 175 189 191 240 170 183 251 269 303 250 276 248 236 240 257 265 315 320 316 303 353
355 353 351 349 346 344 342 341 341 341 340 339 335 290 214 194 223 246 293 285 10 277 248 173 130 174 175 214 267 130 145 188 228 258 288 276 285 268 222 306 333 320 1 300 286 47 338
354 353 352 350 348 343 342 341 341 340 341 336 331 268 198 304 232 325 267 304 279 237 163 145 169 167 205 198 246 177 175 196 206 254 261 266 257 249 208 223 271 263 263 314 332 33 211
354 353 352 350 349 343 342 341 340 339 338 335 332 177 229 242 284 329 306 249 255 272 249 190 158 152 184 204 219 221 163 222 219 226 264 269 313 189 192 189 215 293 198 177 283 266 237
355 353 352 351 349 343 343 342 341 339 336 333 320 200 251 239 227 238 294 220 250 313 4 337 150 151 202 218 216 201 187 214 218 202 202 3 327 351 135 197 108 289 340 259 319 295 9
354 353 352 351 350 344 344 343 343 340 336 333 257 258 233 223 182 233 240 245 273 272 14 346 344 174 204 213 186 190 198 223 245 109 99 343 344 342 326 120 219 185 228 1 346 347 317
353 352 352 352 350 345 345 345 345 343 336 346 245 247 232 171 177 238 232 256 289 309 23 321 341 329 332 273 189 217 242 21 21 103 89 44 54 305 344 301 331 338 313 257 254 125 162
346 347 354 352 351 346 345 346 347 347 337 299 299 274 149 155 171 212 237 247 279 339 25 276 321 306 332 2 1 50 63 64 24 46 41 26 272 297 271 289 304 307 344 355 132 277 201
342 347 350 353 351 348 345 345 346 350 1 319 280 268 168 179 226 242 255 253 249 304 21 296 269 10 9 17 0 23 90 95 57 65 75 14 328 351 339 341 343 20 331 334 329 51 342
345 346 346 353 353 349 346 345 344 343 343 248 275 276 194 186 249 281 289 295 178 151 311 346 354 354 6 348 331 317 322 154 118 110 136 116 274 214 216 256 302 327 323 325 340 359 307
344 345 347 347 353 352 347 346 347 342 344 188 228 307 22 297 250 236 271 328 342 136 175 95 355 314 304 324 352 359 14 1 54 162 99 128 225 290 296 306 313 314 310 308 312 293 303
343 345 347 348 350 354 350 349 352 350 344 247 10 357 343 295 311 317 24 352 304 359 16 86 36 6 37 50 36 357 11 17 30 339 335 318 267 249 277 286 303 317 319 318 307 301 287
342 345 347 348 349 352 353 352 356 3 348 360 11 328 285 284 311 318 2 30 37 25 37 59 51 13 45 14 351 327 308 300 295 308 303 311 321 352 286 323 316 317 300 300 296 301 78
340 344 348 349 347 352 354 353 356 3 14 290 340 299 277 292 325 62 17 15 45 45 11 7 22 31 32 350 329 319 297 279 274 264 233 247 247 195 256 308 271 256 272 303 33 22 24
338 343 347 348 346 353 354 353 355 356 359 303 296 356 326 310 337 27 21 22 358 355 285 316 81 63 5 0 333 309 310 287 252 235 235 203 186 258 190 234 284 296 351 3 69 49 23
333 340 343 345 347 348 352 352 354 356 355 321 301 343 302 297 34 352 328 347 314 333 315 152 87 95 41 283 280 241 258 264 284 355 197 103 119 123 317 274 265 18 358 349 348 68 351
326 335 337 341 344 346 348 350 351 353 354 334 292 8 294 287 29 351 36 336 354 339 340 27 349 343 327 248 290 285 288 289 302 347 16 15 352 247 273 268 268 341 11 341 284 286 341
316 323 330 333 338 343 345 348 349 351 354 355 285 350 26 325 4 8 17 23 348 18 11 329 336 357 348 357 321 338 350 0 4 349 334 289 280 280 273 294 304 28 63 76 218 268 315
306 314 323 327 335 340 342 345 347 350 354 349 303 330 322 213 295 315 11 356 327 353 326 329 307 343 54 17 14 347 341 332 356 305 339 335 120 213 133 247 61 21 74 47 61 28 345